DW5174 Weather Reports


time (UTC)temp
F
wind
direction
speed
knots
gust
knots
rain 1hr
in
rain 24hr
in
rain mn
in
humidity
%
barometer
mb
20260505195705 51 42 0.0 0.0 0.00 0.00 0.00 77 1017.4
20260505195205 52 42 0.0 0.0 0.00 0.00 0.00 76 1017.3
20260505194705 52 42 0.0 0.0 0.00 0.00 0.00 75 1017.3
20260505193705 52 42 0.0 0.0 0.00 0.00 0.00 74 1017.2
20260505193204 52 42 0.0 0.0 0.00 0.00 0.00 73 1017.1
20260505192206 53 42 0.0 2.6 0.00 0.00 0.00 73 1017.2
20260505191229 53 42 0.0 3.5 0.00 0.00 0.00 72 1017.2
20260505190705 53 42 0.0 6.1 0.00 0.00 0.00 70 1017.0
20260505190205 53 333 0.0 6.1 0.00 0.00 0.00 70 1017.0
20260505185705 53 333 2.6 6.1 0.00 0.00 0.00 70 1017.0
20260505185205 53 0 0.9 6.1 0.00 0.00 0.00 70 1017.0
20260505184705 53 30 0.9 6.1 0.00 0.00 0.00 70 1017.0
20260505184205 54 345 0.0 6.1 0.00 0.00 0.00 70 1016.9
20260505183704 54 340 3.5 5.2 0.00 0.00 0.00 70 1016.9
20260505183205 54 18 0.9 5.2 0.00 0.00 0.00 70 1016.9
20260505182704 54 28 1.7 6.1 0.00 0.00 0.00 69 1016.8
20260505182204 54 36 0.0 6.1 0.00 0.00 0.00 69 1016.9
20260505181204 54 352 2.6 6.1 0.00 0.00 0.00 69 1016.8
20260505180705 54 12 1.7 5.2 0.00 0.00 0.00 69 1016.8
20260505180204 54 354 3.5 6.1 0.00 0.00 0.00 70 1016.8
20260505175719 54 67 1.7 6.1 0.00 0.00 0.00 70 1016.9
20260505175205 54 57 0.0 6.1 0.00 0.00 0.00 70 1016.9
20260505174705 54 40 2.6 6.1 0.00 0.00 0.00 70 1016.9
20260505174204 54 14 1.7 7.0 0.00 0.00 0.00 70 1016.9
20260505173204 54 26 3.5 8.7 0.00 0.00 0.00 69 1016.9
20260505172704 54 358 1.7 8.7 0.00 0.00 0.00 69 1016.9
20260505172205 55 5 4.3 8.7 0.00 0.00 0.00 68 1016.9
20260505171204 55 337 6.1 7.0 0.00 0.00 0.00 69 1016.8
20260505170704 55 316 3.5 5.2 0.00 0.00 0.00 70 1016.9
20260505170204 55 21 0.0 5.2 0.00 0.00 0.00 69 1016.9
20260505165205 55 299 0.0 5.2 0.00 0.00 0.00 68 1016.9
20260505164705 55 277 0.0 5.2 0.00 0.00 0.00 69 1017.0
20260505163704 55 278 0.9 5.2 0.00 0.00 0.00 68 1016.9
20260505163204 55 298 2.6 4.3 0.00 0.00 0.00 67 1017.0
20260505162705 55 274 1.7 4.3 0.00 0.00 0.00 68 1016.9
20260505162205 55 305 1.7 5.2 0.00 0.00 0.00 68 1016.9
20260505161728 55 288 0.0 5.2 0.00 0.00 0.00 68 1017.0
20260505161205 55 286 0.0 5.2 0.00 0.00 0.00 68 1017.1
20260505160705 55 275 2.6 5.2 0.00 0.00 0.00 68 1017.1
20260505160204 55 295 0.0 3.5 0.00 0.00 0.00 68 1017.1
20260505153204 54 333 0.9 4.3 0.00 0.00 0.00 71 1017.2
20260505152204 53 8 0.0 5.2 0.00 0.00 0.00 71 1017.2
20260505151205 53 21 0.0 6.1 0.00 0.00 0.00 70 1017.1
20260505150705 53 21 1.7 6.1 0.00 0.00 0.00 70 1017.1
20260505150225 53 39 1.7 8.7 0.00 0.00 0.00 71 1017.0
20260505140204 56 299 0.0 7.0 0.00 0.00 0.00 68 1017.0
20260505130205 55 300 2.6 8.7 0.00 0.00 0.00 72 1017.6
20260505124704 55 7 0.0 7.0 0.00 0.00 0.00 71 1017.7
20260505124205 55 338 2.6 8.7 0.00 0.00 0.00 73 1017.7
20260505123704 54 23 3.5 8.7 0.00 0.00 0.00 73 1017.8
20260505123205 54 350 4.3 8.7 0.00 0.00 0.00 74 1017.8
20260505122704 53 340 4.3 7.8 0.00 0.00 0.00 75 1017.9
20260505122205 53 306 4.3 8.7 0.00 0.00 0.00 75 1017.9
20260505121704 53 310 3.5 8.7 0.00 0.00 0.00 76 1017.8
20260505121204 53 326 3.5 8.7 0.00 0.00 0.00 76 1017.9
20260505120704 52 277 1.7 7.8 0.00 0.00 0.00 76 1017.9
20260505115704 52 330 2.6 9.6 0.00 0.00 0.00 76 1018.0
20260505115205 52 323 4.3 11.3 0.00 0.00 0.00 76 1018.0
20260505114705 52 344 3.5 11.3 0.00 0.00 0.00 75 1018.0
20260505114204 52 270 5.2 11.3 0.00 0.00 0.00 74 1018.0
20260505113704 52 286 4.3 10.4 0.00 0.00 0.00 74 1018.0
20260505113205 53 295 8.7 8.7 0.00 0.00 0.00 73 1018.1
20260505112206 53 258 0.0 7.0 0.00 0.00 0.00 74 1018.1
20260505111704 53 331 0.0 7.0 0.00 0.00 0.00 74 1018.1
20260505111204 53 354 0.0 5.2 0.00 0.00 0.00 74 1018.2
20260505110704 53 281 0.0 5.2 0.00 0.00 0.00 74 1018.2
20260505110204 53 305 0.0 5.2 0.00 0.00 0.00 74 1018.3
20260505102205 52 316 1.7 7.8 0.00 0.00 0.00 76 1018.5
20260505101205 52 7 1.7 7.0 0.00 0.00 0.00 76 1018.6
20260505100705 52 267 4.3 6.1 0.00 0.00 0.00 77 1018.6
20260505095705 52 327 0.0 6.1 0.00 0.00 0.00 77 1018.7
20260505095204 52 337 3.5 6.1 0.00 0.00 0.00 78 1018.7
20260505094704 52 343 3.5 7.0 0.00 0.00 0.00 77 1018.7
20260505094204 52 327 3.5 7.0 0.00 0.00 0.00 77 1018.7
20260505093704 52 336 2.6 7.8 0.00 0.00 0.00 77 1018.7
20260505093204 52 317 2.6 7.8 0.00 0.00 0.00 77 1018.7
20260505092204 52 270 1.7 7.0 0.00 0.00 0.00 78 1018.7
20260505091704 52 307 3.5 7.8 0.00 0.00 0.00 78 1018.8
20260505091204 52 302 0.0 7.8 0.00 0.00 0.00 79 1018.9
20260505090704 51 19 3.5 7.8 0.00 0.00 0.00 81 1018.9
20260505090204 51 305 0.9 7.8 0.00 0.00 0.00 81 1019.0
20260505085705 51 253 0.0 7.8 0.00 0.00 0.00 79 1019.0
20260505085205 51 309 3.5 7.8 0.00 0.00 0.00 79 1019.1
20260505084204 51 322 3.5 9.6 0.00 0.00 0.00 82 1019.1
20260505083704 51 274 0.0 9.6 0.00 0.00 0.00 81 1019.2
20260505082705 51 343 7.0 7.8 0.00 0.00 0.00 84 1019.2
20260505082205 51 322 4.3 7.8 0.00 0.00 0.00 84 1019.2
20260505080205 50 320 1.7 7.8 0.00 0.00 0.00 86 1019.4
20260505075705 49 306 0.0 8.7 0.00 0.00 0.00 86 1019.4
20260505075204 49 306 4.3 8.7 0.00 0.00 0.00 86 1019.4
20260505074704 49 317 2.6 8.7 0.00 0.00 0.00 86 1019.4
20260505074205 49 326 1.7 7.8 0.00 0.00 0.00 87 1019.4
20260505073704 49 343 1.7 7.0 0.00 0.00 0.00 87 1019.5
20260505072705 48 298 1.7 5.2 0.00 0.00 0.00 89 1019.5
20260505072205 48 331 0.0 5.2 0.00 0.00 0.00 89 1019.6
20260505071704 48 279 0.0 5.2 0.00 0.00 0.00 89 1019.6
20260505071205 48 341 0.9 5.2 0.00 0.00 0.00 89 1019.6
20260505070705 47 319 0.9 5.2 0.00 0.00 0.00 90 1019.7
20260505065704 47 327 2.6 6.1 0.00 0.00 0.00 90 1019.7
20260505065205 47 331 0.0 6.1 0.00 0.00 0.00 90 1019.7
20260505064704 47 298 2.6 6.1 0.00 0.00 0.00 90 1019.7
20260505064205 47 288 0.0 6.1 0.00 0.00 0.00 90 1019.7
20260505063704 47 307 1.7 6.1 0.00 0.00 0.00 90 1019.8
20260505062704 47 336 1.7 4.3 0.00 0.00 0.00 90 1019.8
20260505062205 46 320 1.7 2.6 0.00 0.00 0.00 90 1019.8
20260505061705 46 305 0.0 2.6 0.00 0.00 0.00 90 1019.8
20260505061205 46 286 0.0 2.6 0.00 0.00 0.00 90 1019.8
20260505060704 46 286 0.0 3.5 0.00 0.00 0.00 90 1019.7
20260505060204 46 312 0.0 3.5 0.00 0.00 0.00 90 1019.7
20260505055704 46 315 0.0 4.3 0.00 0.00 0.00 90 1019.7
20260505055204 46 334 0.0 4.3 0.00 0.00 0.00 90 1019.7
20260505054704 46 313 0.0 5.2 0.00 0.00 0.00 90 1019.7
20260505054204 45 286 0.0 5.2 0.00 0.00 0.00 90 1019.7
20260505053704 45 300 0.0 5.2 0.00 0.00 0.00 90 1019.7
20260505053204 45 315 1.7 5.2 0.00 0.00 0.00 90 1019.7
20260505052705 45 324 1.7 4.3 0.00 0.00 0.00 90 1019.7
20260505052205 45 306 0.9 3.5 0.00 0.00 0.00 90 1019.6
20260505051705 45 331 0.0 3.5 0.00 0.00 0.00 90 1019.6
20260505051205 45 320 0.0 2.6 0.00 0.00 0.00 90 1019.5
20260505050704 45 286 0.9 3.5 0.00 0.00 0.00 90 1019.5
20260505041704 45 330 3.5 6.1 0.00 0.00 0.00 90 1019.5
20260505041205 45 324 0.9 5.2 0.00 0.00 0.00 90 1019.5
20260505040705 45 329 0.9 5.2 0.00 0.00 0.00 90 1019.5
20260505035704 45 320 1.7 5.2 0.00 0.00 0.00 90 1019.5
20260505035205 45 289 0.9 5.2 0.00 0.00 0.00 90 1019.5
20260505034205 45 310 1.7 4.3 0.00 0.00 0.00 92 1019.5
20260505033704 45 296 1.7 4.3 0.00 0.00 0.00 92 1019.5
20260505033204 45 330 0.0 4.3 0.00 0.00 0.00 92 1019.6
20260505032704 45 324 0.0 4.3 0.00 0.00 0.00 92 1019.6
20260505031705 45 289 1.7 5.2 0.00 0.00 0.00 92 1019.6
20260505031205 45 313 0.0 5.2 0.00 0.00 0.00 92 1019.5
20260505030204 45 320 1.7 5.2 0.00 0.00 0.00 92 1019.5
20260505025704 45 324 2.6 4.3 0.00 0.00 0.00 92 1019.4
20260505025205 45 324 1.7 5.2 0.00 0.00 0.00 92 1019.4
20260505024705 45 319 0.0 5.2 0.00 0.00 0.00 93 1019.4
20260505024204 45 320 0.0 5.2 0.00 0.00 0.00 93 1019.4
20260505023704 45 303 0.0 4.3 0.00 0.00 0.00 93 1019.5
20260505023205 45 333 0.9 4.3 0.00 0.00 0.00 93 1019.5
20260505022705 45 320 0.0 4.3 0.00 0.00 0.00 93 1019.5
20260505022204 45 327 0.0 0.0 0.00 0.00 0.00 94 1019.5
20260505021704 45 340 0.0 0.0 0.00 0.00 0.00 94 1019.5
20260505021204 45 340 0.0 0.0 0.00 0.00 0.00 94 1019.6
20260505020704 45 340 0.0 0.0 0.00 0.00 0.00 94 1019.6
20260505020205 45 340 0.0 2.6 0.00 0.00 0.00 94 1019.6
20260505015704 45 340 0.0 2.6 0.00 0.00 0.00 94 1019.6
20260505015205 45 340 0.0 2.6 0.00 0.00 0.00 95 1019.6
20260505014705 45 340 0.0 5.2 0.00 0.00 0.00 95 1019.7
20260505014205 45 340 0.0 5.2 0.00 0.00 0.00 95 1019.6
20260505013704 45 305 0.0 5.2 0.00 0.00 0.00 95 1019.8
20260505013204 44 315 0.0 3.5 0.00 0.00 0.00 95 1019.8
20260505012204 44 286 0.0 3.5 0.00 0.00 0.00 95 1019.8
20260505011705 44 302 0.9 3.5 0.00 0.00 0.00 95 1019.8
20260505011205 44 291 0.0 2.6 0.00 0.00 0.00 96 1019.8
20260505010204 44 313 0.9 2.6 0.00 0.00 0.00 96 1019.9
20260505005704 44 326 0.0 4.3 0.00 0.00 0.00 96 1019.9
20260505005205 44 305 0.0 5.2 0.00 0.00 0.00 96 1019.8
20260505004705 44 329 0.0 5.2 0.00 0.00 0.00 96 1019.9
20260505003704 44 2 1.7 5.2 0.00 0.00 0.00 96 1019.8
20260505003204 44 336 0.9 3.5 0.00 0.00 0.00 96 1019.8
20260505002705 44 313 0.0 3.5 0.00 0.00 0.00 95 1019.8
20260505002204 43 315 0.0 5.2 0.00 0.00 0.00 95 1019.8
20260505001704 43 344 0.9 5.2 0.00 0.00 0.00 95 1019.8
20260505000704 42 285 0.0 5.2 0.00 0.00 0.00 94 1019.9
20260504235705 42 313 1.7 4.3 0.00 0.00 0.00 93 1019.9
20260504234704 42 333 2.6 0.0 0.00 0.00 0.00 92 1019.9
20260504234204 41 350 0.0 4.3 0.00 0.00 0.00 92 1019.9
20260504233704 41 350 0.0 4.3 0.00 0.00 0.00 90 1019.8
20260504233205 41 350 0.0 4.3 0.00 0.00 0.00 90 1019.9
20260504232704 41 350 0.0 4.3 0.00 0.00 0.00 90 1019.8
20260504232204 41 352 0.0 4.3 0.00 0.00 0.00 90 1019.7
20260504231704 42 316 0.0 4.3 0.00 0.00 0.00 90 1019.6
20260504231204 42 341 3.5 4.3 0.00 0.00 0.00 89 1019.6
20260504230704 42 330 0.0 0.0 0.00 0.00 0.00 89 1019.6
20260504230205 42 337 0.0 1.7 0.00 0.00 0.00 89 1019.6
20260504225705 42 337 0.0 3.5 0.00 0.00 0.00 87 1019.5
20260504225204 42 337 0.0 3.5 0.00 0.00 0.00 87 1019.5
20260504224704 43 337 0.0 3.5 0.00 0.00 0.00 87 1019.5
20260504224204 43 317 0.0 3.5 0.00 0.00 0.00 87 1019.5
20260504223704 43 316 0.9 0.0 0.00 0.00 0.00 87 1019.4
20260504223220 43 331 0.0 0.0 0.00 0.00 0.00 87 1019.3
20260504222705 44 331 0.0 1.7 0.00 0.00 0.00 87 1019.3
20260504222204 44 331 0.0 1.7 0.00 0.00 0.00 87 1019.3
20260504221704 44 331 0.0 1.7 0.00 0.00 0.00 87 1019.4
20260504221204 45 331 0.0 1.7 0.00 0.00 0.00 87 1019.3
20260504220704 45 331 0.0 1.7 0.00 0.00 0.00 87 1019.3
20260504220230 45 355 0.0 0.0 0.00 0.00 0.00 86 1019.2
20260504215704 46 355 0.0 0.0 0.00 0.00 0.00 86 1019.2
20260504215205 46 355 0.0 2.6 0.00 0.00 0.00 86 1019.1
20260504213704 47 355 0.0 2.6 0.00 0.00 0.00 86 1019.1
20260504213205 47 326 0.0 0.0 0.00 0.00 0.00 86 1019.1
20260504212705 48 326 0.0 1.7 0.00 0.00 0.00 85 1019.1
20260504212205 48 326 0.0 1.7 0.00 0.00 0.00 85 1018.9
20260504211704 49 326 0.0 1.7 0.00 0.00 0.00 85 1018.9
20260504211205 49 326 0.0 1.7 0.00 0.00 0.00 85 1018.9
20260504210225 50 298 0.0 0.0 0.00 0.00 0.00 84 1018.9
20260504205705 51 298 0.0 0.0 0.00 0.00 0.00 84 1018.8
20260504205205 51 298 0.0 0.0 0.00 0.00 0.00 84 1018.7
20260504204705 51 298 0.0 0.0 0.00 0.00 0.00 85 1018.6
20260504204204 52 298 0.0 0.0 0.00 0.00 0.00 85 1018.6
20260504203204 52 298 0.0 0.0 0.00 0.00 0.00 84 1018.5
20260504202705 53 298 0.0 2.6 0.00 0.00 0.00 84 1018.4
20260504202205 53 298 0.0 2.6 0.00 0.00 0.00 84 1018.4
20260504201705 53 298 0.0 2.6 0.00 0.00 0.00 84 1018.3
20260504201205 53 298 0.0 2.6 0.00 0.00 0.00 84 1018.3
20260504200204 53 282 0.0 1.7 0.00 0.00 0.00 84 1018.2